Regional Weather Roundup
Issued by NWS

Home | Current Version | Previous Version | Graphics & Text | Print | Product List | Glossary On
Versions: 1 2 3 4 5 6 7 8 9 10 11 12 13 14 15 16 17 18 19 20 21 22 23 24 25 26 27 28 29 30 31 32 33 34 35 36 37 38 39 40 41 42 43 44 45 46 47 48 49 50
252
ASUS43 KMPX 081801
RWRMN
WEATHER ROUNDUP FOR MINNESOTA
NATIONAL WEATHER SERVICE TWIN CITIES/CHANHASSEN MN
1200 PM CST MON FEB 08 2016


NOTE: "FAIR" INDICATES FEW OR NO CLOUDS BELOW 12,000 FEET WITH NO
SIGNIFICANT WEATHER AND/OR OBSTRUCTIONS TO VISIBILITY. N/A MEANS
CURRENT SKY AND/OR WEATHER CONDITIONS ARE NOT AVAILABLE.

MNZ060>063-068>070-081900-
   Twin Cities Metro

CITY           SKY/WX    TMP DP  RH WIND       PRES   REMARKS
TWIN CITIES    CLOUDY    14   4  64 NW20G26   29.95S WCI  -3
6HR MIN TEMP:  11; 6HR MAX TEMP:  15; 6HR PCP: TRACE;

ST PAUL        CLOUDY    14   3  61 NW22      29.96F WCI  -4
CRYSTAL        CLOUDY    14   4  64 N18G28    29.95S WCI  -3
LAKEVILLE      CLOUDY    12   7  79 NW21      29.92F WCI  -6
EDEN PRAIRIE   LGT SNOW  14   5  67 NW16G26   29.94F WCI  -2
6HR MIN TEMP:  12; 6HR MAX TEMP:  15; 6HR PCP: TRACE;

SOUTH ST PAUL  CLOUDY    15   3  59 NW21G28   29.94F WCI  -2
LAKE ELMO      CLOUDY    16   5  62 N17       29.93F WCI   0
$$
MNZ001>005-007-008-013>017-022>024-027-028-081900-
   Northwest Minnesota

CITY           SKY/WX    TMP DP  RH WIND       PRES   REMARKS
BEMIDJI        LGT SNOW   8   2  76 NW18G26   30.01F WCI -11
HALLOCK        CLOUDY    12   7  79 N23G32    30.19S HAZE    WCI  -7
ROSEAU         CLOUDY     9   3  78 NW24G30   30.10S HAZE    WCI -12
WARROAD        LGT SNOW   7   0  72 NW13G20   30.09S WCI  -9
CROOKSTON      LGT SNOW  12   9  85 N29G38    30.18S VSB 3/4 WCI  -9
FOSSTON        LGT SNOW   9   3  78 NW24G31   30.10R VSB 3/4 WCI -12
DETROIT LAKES  LGT SNOW  12   7  79 N31G43    30.09R WCI -10
MOORHEAD         N/A     12  10  92 N23G32    30.17S WCI  -7
PARK RAPIDS    LGT SNOW  11   3  70 NW22G28   29.99F WCI  -8
MAHNOMEN         N/A     10   5  82 N29       30.10R WCI -13
$$
MNZ006-009>011-018-025>026-081900-
   North Central Minnesota

CITY           SKY/WX    TMP DP  RH WIND       PRES   REMARKS
BAUDETTE       LGT SNOW   4  -3  73 NW18G26   30.03S WCI -16
FLAG ISLAND    LGT SNOW   3  -4  72 NW25      30.07S WCI -20
INTL FALLS     CLOUDY     6  -2  69 NW15      29.97S HAZE    WCI -12
6HR MIN TEMP:   3; 6HR MAX TEMP:   6; 6HR PCP:  0.03;

WASKISH        FLURRIES   7   1  78 NW14      30.03S WCI -10
BIG FORK       CLOUDY     7  -2  66 NW9G21    29.96  WCI  -7
LONGVILLE      CLOUDY     9   1  72 NW10G21   29.97F WCI  -6
GRAND RAPIDS   CLOUDY     7  -2  66 NW21G26   29.93S WCI -13
CRANE LAKE     CLOUDY     7   0  72 NW13G21   29.94F WCI  -9
ORR            CLOUDY     7   0  72 NW10G21   29.89F WCI  -8
COOK           CLOUDY     9   1  72 NW12G20   29.91F WCI  -6
WALKER         CLOUDY     8   1  70 NW16G24   29.99S WCI  -9
$$
MNZ012-019>021-037-081900-
   Northeast Minnesota

CITY           SKY/WX    TMP DP  RH WIND       PRES   REMARKS
DULUTH         FLURRIES  10   1  67 NW20G29   29.83S WCI  -9
6HR MIN TEMP:   7; 6HR MAX TEMP:  10; 6HR PCP:  0.02;

ELY            LGT SNOW   9   3  78 NW10      29.84F WCI  -6
HIBBING        LGT SNOW   6   1  80 NW18      29.89F WCI -13
EVELETH        CLOUDY    10   1  67 NW9G22    29.89S WCI  -2
DULUTH HARBOR  CLOUDY    14   5  67 NW15G26   29.91S WCI  -1
TWO HARBORS    FLURRIES  16   7  67 NW8G21    29.82S WCI   5
SILVER BAY     LGT SNOW  14   3  62 NW8G23    29.80F WCI   3
GRAND MARAIS     N/A     13   3  64 CALM      29.83S
G MARAIS ARPRT LGT SNOW   7  -2  66 NW14G22   29.70S WCI -10
$$
MNZ029>031-032-039>041-046>048-054>057-064-081900-
   West Central Minnesota

CITY           SKY/WX    TMP DP  RH WIND       PRES   REMARKS
FERGUS FALLS   CLOUDY    12   7  79 N36G48    30.13R WCI -11
WHEATON        FLURRIES  18  10  73 NW23G36   30.17R WCI   0
MORRIS         CLOUDY    16   9  73 NW35G46   30.07S HAZE    WCI  -6
ALEXANDRIA     LGT SNOW  12   3  67 N25G36    30.01F WCI  -8
ELBOW LAKE     LGT SNOW  12   7  79 NW28G36   30.09S WCI  -9
WADENA         LGT SNOW  10   3  72 NW24G30   30.00F WCI -10
GLENWOOD       CLOUDY    12   7  79 NW26G32   30.01F WCI  -8
APPLETON       SNOW      16  10  79 N32G43    30.10F VSB 1/4 WCI  -5
BENSON         FLURRIES  16   7  67 N30G40    30.06F WCI  -4
ORTONVILLE     LGT SNOW  16   9  73 N25G33    30.12F WCI  -3
MADISON        FLURRIES  18  10  73 N24G31    30.13S WCI   0
WILLMAR        CLOUDY    16   9  73 NW28G35   30.04F WCI  -4
$$
MNZ033>034-036-042>043-049>051-058-059-081900-
   Central Minnesota

CITY           SKY/WX    TMP DP  RH WIND       PRES   REMARKS
ST CLOUD       LGT SNOW  12   3  67 N20G28    29.97F WCI  -6
6HR MIN TEMP:   8; 6HR MAX TEMP:  12; 6HR PCP: TRACE;

SAUK CENTRE    CLOUDY    12   5  73 NW22G30   30.01S WCI  -7
PAYNESVILLE    CLOUDY    13   5  71 NW20G31   30.01S WCI  -5
AITKIN         CLOUDY    14   0  52 NW12G17   29.94S WCI   0
PINE RIVER     CLOUDY    10   3  72 NW12      30.01S WCI  -4
BRAINERD       CLOUDY    10   3  73 NW21      29.97F BLWGSNOWWCI  -9
STAPLES        CLOUDY    10   1  67 NW20G25   29.99F WCI  -8
LONG PRAIRIE   CLOUDY    12   3  67 NW20G32   30.00S HAZE    WCI  -6
LITTLE FALLS   CLOUDY    12   1  62 NW12G20   29.99S WCI  -2
LITCHFIELD     CLOUDY    14   7  73 NW21G26   30.00S WCI  -4
BUFFALO        PTSUNNY   14   5  68 NW18G24   29.98F WCI  -3
MAPLE LAKE     CLOUDY    15   7  71 NW18G25   29.99S HAZE    WCI  -2
$$
MNZ037-044-045-052-053-081900-
   East Central Minnesota

CITY           SKY/WX    TMP DP  RH WIND       PRES   REMARKS
PRINCETON      CLOUDY    14   3  62 NW16G22   29.95F WCI  -2
MORA           CLOUDY    12   3  67 NW17G28   29.95F HAZE    WCI  -5
CAMBRIDGE      LGT SNOW  14   3  62 NW12G23   29.93F WCI   0
RUSH CITY      CLOUDY    15   3  60 N17G25    29.93F WCI  -2
MOOSE LAKE     FLURRIES  12   1  62 N15       29.90S WCI  -4
HINCKLEY       CLOUDY    12   3  67 NW18G25   29.92S WCI  -5
CLOQUET        CLOUDY    10   1  67 NW17G30   29.86F HAZE    WCI  -7
MCGREGOR       MOSUNNY   10   3  72 NW14G20   29.93F WCI  -5
$$
MNZ071>073-080-081-089-090-097-098-081900-
   Southwest Minnesota

CITY           SKY/WX    TMP DP  RH WIND       PRES   REMARKS
MONTEVIDEO     LGT SNOW  16  12  86 N29G41    30.09F WCI  -4
GRANITE FALLS  CLOUDY    17   9  72 NW25G37   30.09F HAZE    WCI  -2
CANBY          FLURRIES  20  14  76 NW18      30.12F WCI   5
MARSHALL       LGT SNOW  15   9  76 N33G44    30.04F VSB 1   WCI  -6
REDWOOD FALLS  LGT SNOW  15   7  70 NW22G35   30.04F WCI  -3
OLIVIA         CLOUDY    16   9  73 NW26G32   30.03F WCI  -3
PIPESTONE      SUNNY     19   9  63 N22G35    30.06S WCI   3
WINDOM         SNOW      12   9  85 NW37G44   30.00F VSB 1/2 WCI -11
WORTHINGTON    CLOUDY   N/A N/A N/A NW32G40   30.05R VSB 1/4
JACKSON        CLOUDY    14   9  79 NW35G45   30.00S WCI  -8
TRACY          LGT SNOW  16  11  80 N32G45    30.07S WCI  -5
SLAYTON        LGT SNOW  13  10  89 NW28G37   30.05S VSB 3/4 WCI  -7
$$
MNZ065>067-074>077-082>085-091>093-081900-
   South Central Minnesota

CITY           SKY/WX    TMP DP  RH WIND       PRES   REMARKS
MANKATO        CLOUDY   N/A N/A N/A NW24G31   29.96F
NEW ULM        FLURRIES  14   7  73 N24       29.99S WCI  -5
ST JAMES       LGT SNOW  16  10  79 NW24      30.01F WCI  -3
FAIRMONT       CLOUDY   N/A N/A N/A NW28G40   29.96F
GLENCOE        CLOUDY    15   8  73 NW22G30   29.98F WCI  -3
FARIBAULT      CLOUDY    14   5  67 NW18G24   29.94S WCI  -3
OWATONNA       CLOUDY    12   7  79 NW23      29.92F HAZE    WCI  -7
WASECA         CLOUDY    14   9  79 NW20G29   29.95F HAZE    WCI  -3
ALBERT LEA     CLOUDY    12   7  79 NW22G32   29.91S HAZE    WCI  -7
$$
MNZ078>079-086>088-094>096-081900-
   Southeast Minnesota

CITY           SKY/WX    TMP DP  RH WIND       PRES   REMARKS
ROCHESTER      CLOUDY    12   6  77 NW28      29.86R BLWGSNOWWCI  -9
6HR MIN TEMP:  11; 6HR MAX TEMP:  13; 6HR PCP: TRACE;

RED WING       FLURRIES  14   3  62 NW13G20   29.91F WCI   0
STANTON        CLOUDY    15   5  63 NW16G24   29.92F WCI   0
DODGE CENTER   CLOUDY    12   7  79 NW18G26   29.87S WCI  -5
WINONA         CLOUDY    19  10  68 NW18G25   29.88R WCI   4
AUSTIN         CLOUDY    12   7  79 NW18G32   29.89S WCI  -5
PRESTON        CLOUDY    14   6  70 NW20G29   29.84S WCI  -4
$$
ABBREVIATIONS USED IN REMARKS
   TC - TEMPERATURES IN CELSIUS
  WCI - WIND CHILL INDEX
   HX - HEAT INDEX
  VSB - VISIBILITY
$$




USA.gov is the U.S. government's official web portal to all federal, state and local government web resources and services.